| time (UTC) | temp F | wind direction | speed MPH | gust MPH | rain 1hr in | rain 24hr in | rain mn in | humidity % | barometer mb |
| 20260504041135 | 61 | 264 | 0.0 | 1.0 | 0.00 | 0.00 | 0.00 | 55 | 1007.8 |
| 20260504040618 | 61 | 264 | 0.0 | 1.0 | 0.00 | 0.00 | 0.00 | 56 | 1007.9 |
| 20260504040135 | 61 | 264 | 0.0 | 1.0 | 0.00 | 0.00 | 0.00 | 55 | 1007.9 |
| 20260504035625 | 61 | 264 | 0.0 | 1.0 | 0.00 | 0.00 | 0.00 | 55 | 1007.9 |
| 20260504035123 | 62 | 264 | 0.0 | 0.0 | 0.00 | 0.00 | 0.00 | 55 | 1008.0 |
| 20260504034628 | 62 | 264 | 0.0 | 1.0 | 0.00 | 0.00 | 0.00 | 54 | 1008.1 |
| 20260504034143 | 62 | 264 | 0.0 | 1.0 | 0.00 | 0.00 | 0.00 | 53 | 1008.1 |
| 20260504033626 | 62 | 264 | 0.0 | 0.0 | 0.00 | 0.00 | 0.00 | 53 | 1008.2 |
| 20260504033119 | 62 | 264 | 0.0 | 0.0 | 0.00 | 0.00 | 0.00 | 53 | 1008.2 |
| 20260504032623 | 63 | 264 | 0.0 | 0.0 | 0.00 | 0.00 | 0.00 | 52 | 1008.2 |
| 20260504032124 | 63 | 264 | 0.0 | 0.0 | 0.00 | 0.00 | 0.00 | 53 | 1008.3 |
| 20260504031653 | 63 | 264 | 0.0 | 0.0 | 0.00 | 0.00 | 0.00 | 53 | 1008.3 |
| 20260504031130 | 63 | 264 | 0.0 | 0.0 | 0.00 | 0.00 | 0.00 | 52 | 1008.4 |
| 20260504030633 | 63 | 264 | 0.0 | 0.0 | 0.00 | 0.00 | 0.00 | 51 | 1008.4 |
| 20260504030131 | 63 | 264 | 0.0 | 0.0 | 0.00 | 0.00 | 0.00 | 51 | 1008.3 |
| 20260504025635 | 64 | 264 | 0.0 | 0.0 | 0.00 | 0.00 | 0.00 | 51 | 1008.4 |
| 20260504025131 | 64 | 264 | 0.0 | 1.0 | 0.00 | 0.00 | 0.00 | 50 | 1008.4 |
| 20260504024635 | 64 | 264 | 0.0 | 1.0 | 0.00 | 0.00 | 0.00 | 51 | 1008.4 |
| 20260504024132 | 64 | 264 | 0.0 | 0.0 | 0.00 | 0.00 | 0.00 | 50 | 1008.4 |
| 20260504023657 | 64 | 264 | 0.0 | 0.0 | 0.00 | 0.00 | 0.00 | 50 | 1008.5 |
| 20260504023114 | 64 | 264 | 0.0 | 0.0 | 0.00 | 0.00 | 0.00 | 49 | 1008.4 |
| 20260504022624 | 65 | 264 | 0.0 | 0.0 | 0.00 | 0.00 | 0.00 | 49 | 1008.4 |
| 20260504022121 | 65 | 264 | 0.0 | 1.0 | 0.00 | 0.00 | 0.00 | 48 | 1008.5 |
| 20260504021629 | 65 | 264 | 0.0 | 1.0 | 0.00 | 0.00 | 0.00 | 48 | 1008.5 |
| 20260504021131 | 66 | 264 | 0.0 | 0.0 | 0.00 | 0.00 | 0.00 | 47 | 1008.5 |
| 20260504020635 | 66 | 264 | 0.0 | 0.0 | 0.00 | 0.00 | 0.00 | 46 | 1008.6 |
| 20260504020119 | 67 | 264 | 0.0 | 1.0 | 0.00 | 0.00 | 0.00 | 46 | 1008.6 |
| 20260504015622 | 67 | 264 | 0.0 | 1.0 | 0.00 | 0.00 | 0.00 | 44 | 1008.7 |
| 20260504015143 | 68 | 264 | 0.0 | 1.0 | 0.00 | 0.00 | 0.00 | 44 | 1008.7 |
| 20260504014645 | 68 | 264 | 0.0 | 1.0 | 0.00 | 0.00 | 0.00 | 42 | 1008.7 |
| 20260504014123 | 69 | 264 | 0.0 | 0.0 | 0.00 | 0.00 | 0.00 | 42 | 1008.7 |
| 20260504013627 | 69 | 264 | 0.0 | 0.0 | 0.00 | 0.00 | 0.00 | 41 | 1008.7 |
| 20260504013123 | 70 | 264 | 0.0 | 2.0 | 0.00 | 0.00 | 0.00 | 40 | 1008.7 |
| 20260504012629 | 70 | 264 | 0.0 | 2.0 | 0.00 | 0.00 | 0.00 | 39 | 1008.7 |
| 20260504012129 | 70 | 260 | 1.0 | 4.0 | 0.00 | 0.00 | 0.00 | 38 | 1008.6 |
| 20260504011633 | 71 | 259 | 1.0 | 4.0 | 0.00 | 0.00 | 0.00 | 38 | 1008.7 |
| 20260504011134 | 72 | 277 | 1.0 | 3.0 | 0.00 | 0.00 | 0.00 | 39 | 1008.7 |
| 20260504010637 | 72 | 220 | 0.0 | 2.0 | 0.00 | 0.00 | 0.00 | 38 | 1008.7 |
| 20260504010119 | 72 | 220 | 0.0 | 2.0 | 0.00 | 0.00 | 0.00 | 36 | 1008.7 |
| 20260504005644 | 72 | 220 | 0.0 | 4.0 | 0.00 | 0.00 | 0.00 | 36 | 1008.8 |
| 20260504005123 | 73 | 219 | 2.0 | 4.0 | 0.00 | 0.00 | 0.00 | 36 | 1008.8 |
| 20260504004630 | 73 | 222 | 1.0 | 4.0 | 0.00 | 0.00 | 0.00 | 35 | 1008.9 |
| 20260504004153 | 73 | 229 | 1.0 | 5.0 | 0.00 | 0.00 | 0.00 | 36 | 1008.9 |
| 20260504003636 | 73 | 229 | 3.0 | 5.0 | 0.00 | 0.00 | 0.00 | 35 | 1008.9 |
| 20260504003135 | 74 | 247 | 2.0 | 4.0 | 0.00 | 0.00 | 0.00 | 35 | 1008.9 |
| 20260504002623 | 74 | 248 | 1.0 | 5.0 | 0.00 | 0.00 | 0.00 | 34 | 1009.0 |
| 20260504002143 | 74 | 265 | 2.0 | 6.0 | 0.00 | 0.00 | 0.00 | 34 | 1009.0 |
| 20260504001650 | 75 | 277 | 3.0 | 6.0 | 0.00 | 0.00 | 0.00 | 33 | 1009.1 |
| 20260504001127 | 75 | 254 | 3.0 | 4.0 | 0.00 | 0.00 | 0.00 | 32 | 1009.1 |
| 20260504000651 | 76 | 235 | 0.0 | 6.0 | 0.00 | 0.00 | 0.00 | 33 | 1009.2 |
| 20260504000129 | 76 | 262 | 1.0 | 6.0 | 0.00 | 0.00 | 0.00 | 31 | 1009.2 |
| 20260503235635 | 76 | 236 | 1.0 | 5.0 | 0.00 | 0.00 | 0.00 | 31 | 1009.2 |
| 20260503235134 | 76 | 277 | 2.0 | 5.0 | 0.00 | 0.00 | 0.00 | 31 | 1009.2 |
| 20260503234654 | 76 | 300 | 0.0 | 5.0 | 0.00 | 0.00 | 0.00 | 31 | 1009.2 |
| 20260503234133 | 76 | 34 | 3.0 | 6.0 | 0.00 | 0.00 | 0.00 | 31 | 1009.2 |
| 20260503233620 | 76 | 264 | 1.0 | 6.0 | 0.00 | 0.00 | 0.00 | 31 | 1009.3 |
| 20260503233122 | 76 | 277 | 3.0 | 6.0 | 0.00 | 0.00 | 0.00 | 31 | 1009.3 |
| 20260503232626 | 76 | 317 | 2.0 | 5.0 | 0.00 | 0.00 | 0.00 | 30 | 1009.3 |
| 20260503232123 | 76 | 280 | 1.0 | 5.0 | 0.00 | 0.00 | 0.00 | 31 | 1009.4 |
| 20260503231630 | 76 | 275 | 1.0 | 6.0 | 0.00 | 0.00 | 0.00 | 31 | 1009.5 |
| 20260503231129 | 76 | 293 | 3.0 | 9.0 | 0.00 | 0.00 | 0.00 | 31 | 1009.4 |
| 20260503230621 | 76 | 270 | 3.0 | 9.0 | 0.00 | 0.00 | 0.00 | 31 | 1009.4 |
| 20260503230116 | 76 | 272 | 4.0 | 8.0 | 0.00 | 0.00 | 0.00 | 31 | 1009.5 |
| 20260503225623 | 76 | 256 | 4.0 | 8.0 | 0.00 | 0.00 | 0.00 | 31 | 1009.6 |
| 20260503225124 | 76 | 344 | 4.0 | 10.0 | 0.00 | 0.00 | 0.00 | 31 | 1009.5 |
| 20260503224629 | 76 | 266 | 7.0 | 10.0 | 0.00 | 0.00 | 0.00 | 31 | 1009.5 |
| 20260503224147 | 76 | 41 | 4.0 | 8.0 | 0.00 | 0.00 | 0.00 | 30 | 1009.5 |
| 20260503223630 | 76 | 40 | 4.0 | 8.0 | 0.00 | 0.00 | 0.00 | 30 | 1009.6 |
| 20260503223132 | 76 | 24 | 1.0 | 9.0 | 0.00 | 0.00 | 0.00 | 31 | 1009.7 |
| 20260503222617 | 76 | 283 | 4.0 | 9.0 | 0.00 | 0.00 | 0.00 | 31 | 1009.7 |
| 20260503222117 | 76 | 281 | 2.0 | 10.0 | 0.00 | 0.00 | 0.00 | 31 | 1009.7 |
| 20260503221626 | 76 | 271 | 7.0 | 10.0 | 0.00 | 0.00 | 0.00 | 31 | 1009.7 |
| 20260503221123 | 77 | 275 | 3.0 | 6.0 | 0.00 | 0.00 | 0.00 | 30 | 1009.7 |
| 20260503220628 | 77 | 134 | 1.0 | 6.0 | 0.00 | 0.00 | 0.00 | 30 | 1009.7 |
| 20260503220128 | 77 | 60 | 4.0 | 6.0 | 0.00 | 0.00 | 0.00 | 30 | 1009.8 |
| 20260503215632 | 76 | 25 | 2.0 | 9.0 | 0.00 | 0.00 | 0.00 | 29 | 1009.9 |
| 20260503215134 | 76 | 307 | 4.0 | 9.0 | 0.00 | 0.00 | 0.00 | 30 | 1009.9 |
| 20260503214637 | 76 | 28 | 2.0 | 6.0 | 0.00 | 0.00 | 0.00 | 31 | 1010.0 |
| 20260503214134 | 76 | 348 | 3.0 | 6.0 | 0.00 | 0.00 | 0.00 | 31 | 1010.0 |
| 20260503213619 | 76 | 240 | 3.0 | 5.0 | 0.00 | 0.00 | 0.00 | 32 | 1010.1 |
| 20260503213135 | 75 | 322 | 2.0 | 8.0 | 0.00 | 0.00 | 0.00 | 32 | 1010.1 |
| 20260503212619 | 75 | 19 | 1.0 | 10.0 | 0.00 | 0.00 | 0.00 | 32 | 1010.2 |
| 20260503212121 | 76 | 49 | 5.0 | 10.0 | 0.00 | 0.00 | 0.00 | 31 | 1010.3 |
| 20260503211628 | 76 | 60 | 2.0 | 7.0 | 0.00 | 0.00 | 0.00 | 31 | 1010.4 |
| 20260503211128 | 76 | 71 | 3.0 | 7.0 | 0.00 | 0.00 | 0.00 | 31 | 1010.6 |
| 20260503210632 | 76 | 54 | 2.0 | 6.0 | 0.00 | 0.00 | 0.00 | 32 | 1010.6 |
| 20260503210134 | 76 | 43 | 2.0 | 6.0 | 0.00 | 0.00 | 0.00 | 33 | 1010.6 |
| 20260503205616 | 75 | 101 | 3.0 | 7.0 | 0.00 | 0.00 | 0.00 | 33 | 1010.7 |
| 20260503205121 | 74 | 201 | 2.0 | 7.0 | 0.00 | 0.00 | 0.00 | 33 | 1010.8 |
| 20260503204628 | 75 | 262 | 3.0 | 8.0 | 0.00 | 0.00 | 0.00 | 33 | 1010.9 |
| 20260503204126 | 74 | 255 | 3.0 | 9.0 | 0.00 | 0.00 | 0.00 | 33 | 1010.9 |
| 20260503203629 | 75 | 281 | 5.0 | 9.0 | 0.00 | 0.00 | 0.00 | 33 | 1011.0 |
| 20260503203129 | 75 | 221 | 2.0 | 8.0 | 0.00 | 0.00 | 0.00 | 33 | 1010.1 |
| 20260503202634 | 75 | 336 | 1.0 | 9.0 | 0.00 | 0.00 | 0.00 | 33 | 1010.2 |
| 20260503202136 | 74 | 9 | 3.0 | 13.0 | 0.00 | 0.00 | 0.00 | 34 | 1010.2 |
| 20260503201619 | 74 | 275 | 4.0 | 13.0 | 0.00 | 0.00 | 0.00 | 32 | 1010.4 |
| 20260503201120 | 74 | 40 | 2.0 | 9.0 | 0.00 | 0.00 | 0.00 | 36 | 1010.4 |
| 20260503200628 | 74 | 275 | 6.0 | 8.0 | 0.00 | 0.00 | 0.00 | 33 | 1010.4 |
| 20260503200129 | 73 | 91 | 3.0 | 9.0 | 0.00 | 0.00 | 0.00 | 35 | 1010.5 |
| 20260503195634 | 73 | 352 | 6.0 | 9.0 | 0.00 | 0.00 | 0.00 | 34 | 1010.5 |
| 20260503195133 | 73 | 9 | 3.0 | 7.0 | 0.00 | 0.00 | 0.00 | 34 | 1010.5 |
| 20260503194621 | 73 | 63 | 3.0 | 6.0 | 0.00 | 0.00 | 0.00 | 35 | 1010.7 |
| 20260503194119 | 73 | 217 | 3.0 | 9.0 | 0.00 | 0.00 | 0.00 | 35 | 1010.6 |
| 20260503193650 | 73 | 326 | 4.0 | 9.0 | 0.00 | 0.00 | 0.00 | 34 | 1010.7 |
| 20260503193150 | 73 | 9 | 4.0 | 8.0 | 0.00 | 0.00 | 0.00 | 34 | 1010.9 |
| 20260503192653 | 73 | 278 | 5.0 | 8.0 | 0.00 | 0.00 | 0.00 | 34 | 1010.8 |
| 20260503192134 | 74 | 304 | 3.0 | 7.0 | 0.00 | 0.00 | 0.00 | 33 | 1010.9 |
| 20260503191625 | 74 | 137 | 2.0 | 11.0 | 0.00 | 0.00 | 0.00 | 34 | 1010.7 |
| 20260503191126 | 73 | 238 | 4.0 | 9.0 | 0.00 | 0.00 | 0.00 | 33 | 1011.0 |
| 20260503190630 | 73 | 343 | 3.0 | 12.0 | 0.00 | 0.00 | 0.00 | 35 | 1010.9 |
| 20260503190136 | 72 | 252 | 3.0 | 15.0 | 0.00 | 0.00 | 0.00 | 35 | 1011.0 |
| 20260503185620 | 73 | 328 | 5.0 | 15.0 | 0.00 | 0.00 | 0.00 | 34 | 1011.1 |
| 20260503185141 | 72 | 346 | 5.0 | 12.0 | 0.00 | 0.00 | 0.00 | 34 | 1011.0 |
| 20260503184624 | 72 | 94 | 4.0 | 10.0 | 0.00 | 0.00 | 0.00 | 34 | 1011.1 |
| 20260503184121 | 73 | 301 | 4.0 | 13.0 | 0.00 | 0.00 | 0.00 | 34 | 1011.3 |
| 20260503183628 | 73 | 348 | 5.0 | 13.0 | 0.00 | 0.00 | 0.00 | 34 | 1011.2 |
| 20260503183124 | 73 | 9 | 3.0 | 9.0 | 0.00 | 0.00 | 0.00 | 35 | 1011.2 |
| 20260503182629 | 73 | 50 | 2.0 | 9.0 | 0.00 | 0.00 | 0.00 | 37 | 1011.3 |
| 20260503182134 | 72 | 358 | 3.0 | 11.0 | 0.00 | 0.00 | 0.00 | 37 | 1011.2 |
| 20260503181644 | 72 | 50 | 5.0 | 11.0 | 0.00 | 0.00 | 0.00 | 35 | 1011.3 |
| 20260503181123 | 72 | 23 | 3.0 | 10.0 | 0.00 | 0.00 | 0.00 | 36 | 1011.4 |
| 20260503180628 | 72 | 291 | 2.0 | 9.0 | 0.00 | 0.00 | 0.00 | 36 | 1011.5 |
| 20260503180127 | 72 | 87 | 2.0 | 9.0 | 0.00 | 0.00 | 0.00 | 36 | 1011.6 |
| 20260503175630 | 71 | 351 | 5.0 | 7.0 | 0.00 | 0.00 | 0.00 | 37 | 1011.7 |
| 20260503175128 | 71 | 300 | 3.0 | 8.0 | 0.00 | 0.00 | 0.00 | 36 | 1011.7 |
| 20260503174633 | 71 | 298 | 4.0 | 10.0 | 0.00 | 0.00 | 0.00 | 37 | 1011.8 |
| 20260503174131 | 71 | 304 | 4.0 | 10.0 | 0.00 | 0.00 | 0.00 | 36 | 1011.9 |
| 20260503173615 | 71 | 329 | 3.0 | 11.0 | 0.00 | 0.00 | 0.00 | 35 | 1011.9 |
| 20260503173119 | 71 | 256 | 4.0 | 11.0 | 0.00 | 0.00 | 0.00 | 35 | 1011.9 |
| 20260503172624 | 71 | 14 | 2.0 | 8.0 | 0.00 | 0.00 | 0.00 | 35 | 1011.9 |
| 20260503172142 | 71 | 344 | 4.0 | 11.0 | 0.00 | 0.00 | 0.00 | 35 | 1012.0 |
| 20260503171627 | 71 | 286 | 3.0 | 11.0 | 0.00 | 0.00 | 0.00 | 36 | 1012.0 |
| 20260503171127 | 71 | 285 | 2.0 | 9.0 | 0.00 | 0.00 | 0.00 | 38 | 1011.9 |
| 20260503170634 | 71 | 64 | 2.0 | 8.0 | 0.00 | 0.00 | 0.00 | 37 | 1012.0 |
| 20260503170134 | 71 | 19 | 4.0 | 8.0 | 0.00 | 0.00 | 0.00 | 36 | 1012.1 |
| 20260503160134 | 66 | 333 | 1.0 | 6.0 | 0.00 | 0.00 | 0.00 | 47 | 1012.2 |
| 20260503150629 | 62 | 240 | 3.0 | 6.0 | 0.00 | 0.00 | 0.00 | 51 | 1012.0 |
| 20260503150135 | 61 | 282 | 2.0 | 7.0 | 0.00 | 0.00 | 0.00 | 51 | 1011.9 |
| 20260503140128 | 58 | 234 | 3.0 | 7.0 | 0.00 | 0.00 | 0.00 | 52 | 1011.9 |
| 20260503131123 | 56 | 243 | 3.0 | 10.0 | 0.00 | 0.00 | 0.00 | 53 | 1011.4 |
| 20260503130626 | 56 | 229 | 4.0 | 8.0 | 0.00 | 0.00 | 0.00 | 52 | 1011.2 |
| 20260503130124 | 56 | 283 | 6.0 | 9.0 | 0.00 | 0.00 | 0.00 | 52 | 1011.5 |
| 20260503120125 | 54 | 243 | 5.0 | 8.0 | 0.00 | 0.00 | 0.00 | 53 | 1011.2 |
| 20260503110621 | 55 | 295 | 1.0 | 6.0 | 0.00 | 0.00 | 0.00 | 51 | 1011.4 |
| 20260503110125 | 55 | 285 | 2.0 | 8.0 | 0.00 | 0.00 | 0.00 | 50 | 1011.2 |
| 20260503100127 | 57 | 262 | 5.0 | 10.0 | 0.00 | 0.00 | 0.00 | 46 | 1011.1 |
| 20260503090130 | 55 | 179 | 2.0 | 8.0 | 0.00 | 0.00 | 0.00 | 49 | 1011.2 |
| 20260503081616 | 54 | 228 | 2.0 | 10.0 | 0.00 | 0.00 | 0.00 | 50 | 1011.5 |
| 20260503081137 | 54 | 239 | 4.0 | 10.0 | 0.00 | 0.00 | 0.00 | 49 | 1011.6 |
| 20260503080620 | 54 | 216 | 3.0 | 8.0 | 0.00 | 0.00 | 0.00 | 49 | 1011.7 |
| 20260503080117 | 54 | 194 | 2.0 | 7.0 | 0.00 | 0.00 | 0.00 | 49 | 1011.7 |
| 20260503072625 | 55 | 187 | 1.0 | 8.0 | 0.00 | 0.00 | 0.00 | 48 | 1012.0 |
| 20260503072123 | 55 | 163 | 2.0 | 8.0 | 0.00 | 0.00 | 0.00 | 47 | 1012.0 |
| 20260503071631 | 55 | 206 | 3.0 | 7.0 | 0.00 | 0.00 | 0.00 | 47 | 1012.0 |
| 20260503071127 | 55 | 215 | 3.0 | 7.0 | 0.00 | 0.00 | 0.00 | 47 | 1012.0 |
| 20260503070619 | 55 | 199 | 3.0 | 6.0 | 0.00 | 0.00 | 0.00 | 47 | 1012.0 |
| 20260503070115 | 56 | 183 | 4.0 | 7.0 | 0.00 | 0.00 | 0.00 | 46 | 1012.1 |
| 20260503060125 | 56 | 231 | 4.0 | 8.0 | 0.00 | 0.00 | 0.00 | 46 | 1013.1 |
| 20260503055128 | 56 | 243 | 3.0 | 9.0 | 0.00 | 0.00 | 0.00 | 45 | 1013.0 |
| 20260503054632 | 56 | 235 | 2.0 | 9.0 | 0.00 | 0.00 | 0.00 | 45 | 1013.1 |
| 20260503054128 | 56 | 208 | 2.0 | 8.0 | 0.00 | 0.00 | 0.00 | 45 | 1013.2 |
| 20260503053631 | 56 | 206 | 5.0 | 8.0 | 0.00 | 0.00 | 0.00 | 45 | 1013.2 |
| 20260503053129 | 56 | 239 | 2.0 | 7.0 | 0.00 | 0.00 | 0.00 | 45 | 1013.2 |
| 20260503052631 | 56 | 214 | 3.0 | 7.0 | 0.00 | 0.00 | 0.00 | 45 | 1013.2 |
| 20260503052153 | 56 | 191 | 3.0 | 8.0 | 0.00 | 0.00 | 0.00 | 45 | 1013.1 |
| 20260503051635 | 56 | 180 | 4.0 | 8.0 | 0.00 | 0.00 | 0.00 | 45 | 1013.1 |
| 20260503051135 | 56 | 222 | 4.0 | 8.0 | 0.00 | 0.00 | 0.00 | 45 | 1013.2 |
| 20260503050620 | 57 | 253 | 3.0 | 7.0 | 0.00 | 0.00 | 0.00 | 45 | 1013.2 |
| 20260503050121 | 57 | 251 | 3.0 | 9.0 | 0.00 | 0.00 | 0.00 | 44 | 1013.3 |
| 20260503045620 | 57 | 196 | 4.0 | 8.0 | 0.00 | 0.00 | 0.00 | 44 | 1013.3 |
| 20260503045135 | 57 | 202 | 1.0 | 9.0 | 0.00 | 0.00 | 0.00 | 44 | 1013.4 |
| 20260503044619 | 57 | 229 | 2.0 | 9.0 | 0.00 | 0.00 | 0.00 | 44 | 1013.4 |
| 20260503044118 | 57 | 227 | 2.0 | 8.0 | 0.00 | 0.00 | 0.00 | 43 | 1013.4 |
| 20260503043627 | 58 | 181 | 3.0 | 8.0 | 0.00 | 0.00 | 0.00 | 43 | 1013.4 |
| 20260503043130 | 58 | 226 | 3.0 | 9.0 | 0.00 | 0.00 | 0.00 | 43 | 1013.5 |
| 20260503042637 | 58 | 236 | 2.0 | 9.0 | 0.00 | 0.00 | 0.00 | 42 | 1013.6 |
| 20260503042134 | 58 | 214 | 2.0 | 9.0 | 0.00 | 0.00 | 0.00 | 42 | 1013.6 |
| 20260503041619 | 58 | 183 | 3.0 | 10.0 | 0.00 | 0.00 | 0.00 | 42 | 1013.7 |